Location: Catacaguana
(10.4120°N, 66.7591°W)
Time: 04:03:53
(UTC+00:00)

DELTA 2 DEB (DPAF) - Pass Details

Date: 27 May 2022
Orbit: 634 x 640 km, 98.4° (Epoch: 24 June)

Event Time Altitude Azimuth Distance (km) Brightness Sun altitude
Exits shadow 08:44:02 - 175° (S) 2,235 6.7 -18.8°
Reaches altitude 10° 08:44:32 10° 176° (S) 2,026 6.5 -18.7°
Maximum altitude 08:48:55 66° 258° (WSW) 700 4.0 -17.7°
Drops below altitude 10° 08:53:17 10° 340° (NNW) 2,023 6.8 -16.8°
Sets 08:55:30 0° 343° (NNW) 2,930 7.7 -16.3°
